TimeAKDT,TemperatureF,Dew PointF,Humidity,Sea Level PressureIn,VisibilityMPH,Wind Direction,Wind SpeedMPH,Gust SpeedMPH,PrecipitationIn,Events,Conditions,WindDirDegrees,DateUTC
12:53 AM,51.1,44.1,77,29.61,10.0,Calm,Calm,-,N/A,,Mostly Cloudy,0,2013-08-23 08:53:00
1:53 AM,52.0,44.1,74,29.60,10.0,WSW,5.8,-,N/A,,Mostly Cloudy,240,2013-08-23 09:53:00
2:53 AM,50.0,45.0,83,29.61,10.0,SSW,3.5,-,0.00,Rain,Light Rain,210,2013-08-23 10:53:00
3:53 AM,48.9,45.0,86,29.60,10.0,SW,4.6,-,0.01,Rain,Light Rain,230,2013-08-23 11:53:00
4:53 AM,48.0,46.0,93,29.60,6.0,Calm,Calm,-,0.04,Rain,Light Rain,0,2013-08-23 12:53:00
5:53 AM,48.0,46.0,93,29.59,9.0,South,4.6,-,0.05,Rain,Light Rain,180,2013-08-23 13:53:00
6:53 AM,48.0,46.0,93,29.58,10.0,NE,3.5,-,0.02,Rain,Light Rain,40,2013-08-23 14:53:00
7:53 AM,48.9,46.9,93,29.57,10.0,SE,4.6,-,0.00,Rain,Light Rain,130,2013-08-23 15:53:00
8:53 AM,50.0,48.0,93,29.57,10.0,ESE,3.5,-,0.00,Rain,Light Rain,120,2013-08-23 16:53:00
9:53 AM,52.0,48.9,89,29.55,10.0,SE,3.5,-,0.00,,Overcast,140,2013-08-23 17:53:00
10:53 AM,53.1,48.0,83,29.56,10.0,SE,3.5,-,N/A,,Overcast,140,2013-08-23 18:53:00
11:53 AM,55.9,46.9,72,29.55,10.0,Calm,Calm,-,N/A,,Overcast,0,2013-08-23 19:53:00
12:53 PM,55.0,48.9,80,29.55,10.0,North,4.6,-,N/A,,Overcast,350,2013-08-23 20:53:00
1:53 PM,55.0,45.0,69,29.54,10.0,NNW,5.8,-,N/A,,Overcast,330,2013-08-23 21:53:00
2:53 PM,54.0,48.0,80,29.55,10.0,Variable,3.5,-,0.00,Rain,Light Rain,0,2013-08-23 22:53:00
3:53 PM,54.0,48.9,83,29.54,10.0,Calm,Calm,-,0.00,,Overcast,0,2013-08-23 23:53:00
4:53 PM,55.0,46.9,74,29.53,10.0,NW,6.9,-,N/A,,Overcast,310,2013-08-24 00:53:00
5:53 PM,52.0,46.9,83,29.54,1.8,WNW,5.8,-,0.03,Rain,Rain,300,2013-08-24 01:53:00
6:00 PM,51.8,48.2,88,29.51,2.0,WNW,3.5,-,N/A,Rain,Rain,290,2013-08-24 02:00:00
6:08 PM,51.8,48.2,88,29.51,10.0,WNW,3.5,-,N/A,,Overcast,290,2013-08-24 02:08:00
6:35 PM,51.8,48.2,88,29.51,10.0,NW,4.6,-,N/A,Rain,Light Rain,310,2013-08-24 02:35:00
6:53 PM,51.1,48.9,92,29.54,10.0,NW,4.6,-,N/A,Rain,Light Rain,320,2013-08-24 02:53:00
7:27 PM,50.0,48.2,94,29.52,10.0,WNW,4.6,-,N/A,,Overcast,300,2013-08-24 03:27:00
7:39 PM,50.0,48.2,94,29.52,10.0,Variable,4.6,-,N/A,,Overcast,0,2013-08-24 03:39:00
7:53 PM,50.0,48.0,93,29.54,10.0,WNW,3.5,-,N/A,Rain,Light Rain,300,2013-08-24 03:53:00
8:53 PM,48.9,46.9,93,29.55,4.0,Variable,3.5,-,0.04,Rain,Light Rain,0,2013-08-24 04:53:00
9:53 PM,48.0,46.9,96,29.56,8.0,Calm,Calm,-,0.05,Rain,Light Rain,0,2013-08-24 05:53:00
10:53 PM,46.9,46.0,97,29.56,8.0,WSW,3.5,-,0.09,Rain,Light Rain,250,2013-08-24 06:53:00
11:53 PM,48.0,46.0,93,29.56,6.0,Variable,5.8,-,0.06,Rain,Light Rain,0,2013-08-24 07:53:00